Regional Weather Roundup
Issued by NWS Portland, ME

Current Version | Previous Version | Text Only | Print | Product List | Glossary Off
Versions: 1 2 3 4 5 6 7 8 9 10 11 12 13 14 15 16 17 18 19 20 21 22 23 24 25 26 27 28 29 30 31 32 33 34 35 36 37 38 39 40 41 42 43 44 45 46 47 48 49 50
000 ASUS41 KGYX 250706 RWRGYX WEATHER ROUNDUP FOR MAINE AND NEW HAMPSHIRE NATIONAL WEATHER SERVICE GRAY ME 200 AM EST SUN FEB 25 2018 MEZ002-005-006-010-012-015-018-020-021-024-026-027-029-250800- MAINE CITY SKY/WX TMP DP RH WIND PRES REMARKS PORTLAND FAIR 32 23 69 E9 30.36R SANFORD FAIR 30 25 81 NE13 30.33R WCI 20 BAR HARBOR FAIR 28 18 66 VRB3 30.36R WISCASSET FAIR 26 22 84 CALM 30.37R ROCKLAND FAIR 31 20 63 N6 30.36R FRYEBURG FAIR 24 23 96 CALM 30.34R LEWISTONAUBURN FAIR 26 22 84 CALM 30.36R AUGUSTA FAIR 30 18 60 CALM 30.36R WATERVILLE FAIR 27 20 75 CALM 30.31R BANGOR FAIR 28 16 60 N10 30.36R WCI 19 GREENVILLE N/A 21 4 47 N12 30.26R WCI 9 MILLINOCKET FAIR 23 3 42 NE8 30.38R HOULTON FAIR 14 2 58 N10 30.37R WCI 1 PRESQUE ISLE FAIR 13 3 64 CALM 30.40R FRENCHVILLE FAIR 10 1 67 CALM 30.35R CARIBOU FAIR 12 1 61 NW3 30.37R $$ NHZ002-005-008-009-011-012-014-250800- NEW HAMPSHIRE CITY SKY/WX TMP DP RH WIND PRES REMARKS PORTSMOUTH CLOUDY 35 24 64 NE6 30.31R ROCHESTER FAIR 31 24 75 VRB5 30.31R NASHUA FAIR 29 27 92 NW5 30.32R MANCHESTER CLOUDY 33 26 75 CALM 30.31R CONCORD FAIR 27 24 89 CALM 30.32R LACONIA FAIR 30 25 81 E10 30.31R PLYMOUTH FAIR 24 24 96 CALM 30.31R BERLIN FAIR 24 21 88 CALM 30.28R WHITEFIELD FAIR 27 22 81 VRB3 30.26R JAFFREY FAIR 32 28 85 CALM 30.27R KEENE FAIR 28 27 96 N3 30.30R LEBANON FAIR 28 26 92 CALM 30.29R MT WASHINGTON PTCLDY 23 -2 33 W16 N/A WCI 10 $$ VTZ005-007-008-250800- VERMONT CITY SKY/WX TMP DP RH WIND PRES REMARKS ST JOHNSBURY N/A 25 25 100 MISG 30.27S MONTPELIER FAIR 24 23 96 CALM 30.30S BURLINGTON FAIR 28 24 85 E6 30.27S $$ MAZ007-012-024-CTZ003-RIZ002-NYZ038-NYZ072-250800- SOUTHERN NEW ENGLAND AND NY CITY SKY/WX TMP DP RH WIND PRES REMARKS BOSTON MOCLDY 40 33 76 NE15 30.31R WORCESTER FAIR 34 25 69 NE9 30.25R NANTUCKET CLOUDY 42 41 96 NE8 30.26S PROVIDENCE CLOUDY 42 33 70 NE10 30.28S HARTFORD CLOUDY 40 33 76 N7 30.27R ALBANY CLOUDY 33 25 72 N8 30.24F NEW YORK CITY CLOUDY 43 38 82 NE10 30.18F $$ ANZ081-ANZ082-ANZ150-NHZ014-MEZ023>029-250800- COASTAL MARINE OBSERVATIONS STATION/POSITION TIME TEMP WIND PRES WAVE AIR SEA DIR/SP/G HT/PER (UTC) (F) (DEG/KT/KT) (MB) (FT/S) MOUNT DESERT ROC 0700 35 360/ 22/ 24 1027.1R MATINICUS ROCK 0600 35 20/ 18/ 21 1026.5R ISLE OF SHOALS 0600 38 40/ 20/ 23 1025.5F JEFFREYS LEDGE 0636 41 N/A 3/ 4 GEORGES BANK BUO 0550 40 56 1013.7 17/10 $$ .............KEY.............. WCI - WIND CHILL TC - TEMPERATURE IN CELSIUS VSB - VISIBILITY IN MILES HX - HEAT INDEX FAIR- INDICATES FEW OR NO CLOUDS BELOW 12,000 FT, WITH NO SIGNIFICANT WEATHER AND/OR OBSTRUCTIONS TO VISIBILITY.

USA.gov is the U.S. government's official web portal to all federal, state and local government web resources and services.